Preview of NWS' New Version of Forecast
This preview is not operational and should not be used for support decisions.

Regional Weather Roundup (RWR)

Issued by National Weather Service (NWS)

                            
000
ASUS45 KABQ 171710
RWRNM 
NEW MEXICO REGIONAL WEATHER ROUNDUP
NATIONAL WEATHER SERVICE ALBUQUERQUE NM
1100 AM MDT WED JUL 17 2019

NOTE: "FAIR" MEANS FEW OR NO CLOUDS BELOW 12,000 FEET AGL WITH NO
       SIGNIFICANT WEATHER OR OBSTRUCTIONS TO VISION.

      THIS PRODUCT IS RELEASED AS TWO VERSIONS.  ONE VERSION NEAR
      THE TOP OF THE HOUR CONTAINING PRELIMINARY DATA FROM ALBUQUERQUE
      AND OTHER STATIONS.  A FINAL VERSION WITH ADDITIONAL DATA IS 
      ISSUED ABOUT 10 MINUTES AFTER THE HOUR.
 
NMZ501-503-504-510>518-171800-
NORTHWEST PLATEAU/NORTHCENTRAL MOUNTAINS
  
CITY           SKY/WX    TMP DP  RH WIND       PRES   REMARKS
FARMINGTON     FAIR      83  44  25 W5        30.17F                  
LOS ALAMOS       N/A     73  53  49 NE3       30.30F                  
SANTA FE       FAIR      80  53  39 SW10      30.23F                  
TAOS           FAIR      77  50  38 W9        30.30F                  
ANGEL FIRE       N/A     70  49  47 SW16      30.37F                  

$$
NMZ402-403-502-505>509-171800-
WESTCENTRAL MOUNTAINS/SOUTHWEST MOUNTAINS
  
CITY           SKY/WX    TMP DP  RH WIND       PRES   REMARKS
GALLUP         FAIR      83  42  23 SW10G21   30.27F                  
GRANTS         FAIR      79  49  34 N7        30.29S                  
SILVER CITY    FAIR      84  51  31 W13G21    30.22F                  

$$
NMZ407-409-411-412-171800-
SOUTHERN DESERTS
  
CITY           SKY/WX    TMP DP  RH WIND       PRES   REMARKS
DEMING         FAIR      88  57  34 W10       30.15R                  
LAS CRUCES     FAIR      91  48  22 W10G17    30.15S                  
HOLLOMAN AFB   FAIR      91  54  28 S10       30.12S                  
ALAMOGORDO     FAIR      90  54  29 S13G18    30.12S                  
T OR C         FAIR      90  48  23 VRB6      30.14S                  

$$
NMZ519>523-171800-
CENTRAL VALLEYS/CENTRAL HIGHLANDS
  
CITY           SKY/WX    TMP DP  RH WIND       PRES   REMARKS
ALBUQUERQUE    FAIR      82  54  37 SW7       30.18F                  
DOUBLE EAGLE   MOSUNNY   82  48  30 CALM      30.21F                  
MORIARTY ARPT  FAIR      85  50  30 W9G17     30.24F                  
CLINES CORNERS FAIR      74  54  49 W17G25    30.29S                  
BELEN          FAIR      87  42  20 W7        30.17F                  
SOCORRO        FAIR      86  50  28 E5        30.15S                  

$$
NMZ524>526-539-540-171800-
SOUTHCENTRAL MOUNTAINS
  
CITY           SKY/WX    TMP DP  RH WIND       PRES   REMARKS
RUIDOSO        PTSUNNY   77  48  36 W10G18    30.31F                  

$$
NMZ527>531-171800-
NORTHEAST HIGHLANDS/NORTHEAST PLAINS
  
CITY           SKY/WX    TMP DP  RH WIND       PRES   REMARKS
LAS VEGAS      FAIR      84  50  30 N6        30.22F                  
RATON          FAIR      83  51  33 S10       30.14F                  
CLAYTON        FAIR      87  54  32 SW16G26   30.06F                  

$$
NMZ532>537-171800-
EASTCENTRAL PLAINS
  
CITY           SKY/WX    TMP DP  RH WIND       PRES   REMARKS
SANTA ROSA     FAIR      90  52  27 SW13      30.10F                  
TUCUMCARI      FAIR      92  64  39 SW20      30.02F                  
CANNON AFB     FAIR      89  58  35 S15       30.10F                  
CLOVIS AIRPORT FAIR      91  60  35 S21       30.10F                  

$$
NMZ028-029-538-171800-
SOUTHEAST PLAINS
  
CITY           SKY/WX    TMP DP  RH WIND       PRES   REMARKS
ROSWELL        PTSUNNY   89  61  38 VRB3      30.05F                  
ARTESIA        FAIR      90  63  40 VRB6      30.06S                  
CARLSBAD       FAIR      89  62  40 SE12      30.02S                  
HOBBS          SUNNY     88  61  40 SE14      30.08S                  


$$